Leadville, CO

6:33 AM MST on November 19, 2017 (GMT -0700)
Lake County

Weather History for KLXV - July, 2014

Change the Weather History Date:

Monday, July 7, 2014

  Actual Average Record
Temperature  
Mean Temperature 58 °F -  
Max Temperature 76 °F 70 °F 81 °F (1989)
Min Temperature 39 °F 37 °F 30 °F (1993)
Degree Days  
Heating Degree Days 7 11  
Month to date heating degree days 59 83  
Since 1 June heating degree days 513 563  
Since 1 July heating degree days 59 83  
Cooling Degree Days 0 0  
Month to date cooling degree days 0 0  
Year to date cooling degree days 0 0  
Since 1 June cooling degree days 0 0  
Growing Degree Days 8 (Base 50)    
Moisture  
Dew Point 33 °F    
Average Humidity 45    
Maximum Humidity 70    
Minimum Humidity 19    
Precipitation  
Precipitation 0.01 in 0.05 in 0.72 in (2000)
Month to date precipitation 0.01 0.31  
Year to date precipitation 8.63 5.38  
Sea Level Pressure  
Sea Level Pressure 29.95 in    
Wind  
Wind Speed 8 mph (NNW)    
Max Wind Speed 29 mph    
Max Gust Speed 34 mph    
Visibility 10 miles    
Events      
T = Trace of Precipitation, MM = Missing Value Source: NWS Daily Summary

Daily Weather History Graph

Daily Weather History Graph

Search for Another Location

Airport or City:

Trip Planner

Search our weather history database for the weather conditions in past years. The results will help you decide how hot, cold, wet, or windy it might be!

Date:

Astronomy

Jul. 07, 2014 Rise Set
Actual Time 5:45 AM MDT 8:34 PM MDT
Civil Twilight 5:14 AM MDT 9:06 PM MDT
Nautical Twilight 4:34 AM MDT 9:45 PM MDT
Astronomical Twilight 3:48 AM MDT 10:31 PM MDT
Moon 3:41 PM MDT (7/7) 1:39 AM MDT (7/7)
Length of Visible Light 15h 51m
Length of Day
14h 48m
Waxing Gibbous, 73% of the Moon is Illuminated
Jul 7
Waxing Gibbous
Jul 12
Full
Jul 18
Last Quarter
Jul 26
New
Aug 3
First Quarter

Hourly Weather History & Observations

Time (MDT) Temp. Windchill Dew Point Humidity Pressure Visibility Wind Dir Wind Speed Gust Speed Precip Events Conditions
12:53 AM 50.0 °F - 34.0 °F 54% 29.96 in 10.0 mi Calm Calm - N/A   Mostly Cloudy
1:53 AM 53.1 °F - 33.1 °F 47% 29.99 in 10.0 mi Calm Calm - N/A   Clear
2:53 AM 48.0 °F - 33.1 °F 56% 30.03 in 10.0 mi NE 4.6 mph - N/A   Overcast
3:53 AM 45.0 °F - 34.0 °F 65% 30.02 in 10.0 mi Calm Calm - N/A   Overcast
4:53 AM 46.9 °F - 33.1 °F 59% 29.98 in 10.0 mi East 4.6 mph - N/A   Clear
5:53 AM 42.1 °F 38.4 °F 33.1 °F 70% 30.01 in 10.0 mi ENE 5.8 mph - N/A   Clear
6:53 AM 46.9 °F - 34.0 °F 61% 29.99 in 10.0 mi Calm Calm - N/A   Clear
8:53 AM 62.1 °F - 36.0 °F 38% 29.96 in 10.0 mi NE 4.6 mph - N/A   Clear
9:53 AM 69.1 °F - 32.0 °F 25% 29.93 in 10.0 mi WNW 10.4 mph 24.2 mph N/A   Clear
10:53 AM 71.1 °F - 30.9 °F 23% 29.93 in 10.0 mi WNW 15.0 mph 23.0 mph N/A   Clear
11:53 AM 73.9 °F - 30.0 °F 20% 29.90 in 10.0 mi NW 13.8 mph 18.4 mph N/A   Partly Cloudy
12:53 PM 71.1 °F - 30.9 °F 23% 29.90 in 10.0 mi North 17.3 mph - N/A   Partly Cloudy
1:53 PM 73.0 °F - 28.9 °F 20% 29.88 in 10.0 mi North 16.1 mph 28.8 mph N/A   Partly Cloudy
2:53 PM 72.0 °F - 28.9 °F 20% 29.89 in 10.0 mi North 12.7 mph 24.2 mph N/A   Scattered Clouds
3:53 PM 63.0 °F - 35.1 °F 35% 29.97 in 10.0 mi West 13.8 mph - 0.01 in   Overcast
4:53 PM 70.0 °F - 30.0 °F 23% 29.88 in 10.0 mi WSW 9.2 mph - N/A   Clear
5:22 PM 66.9 °F - 36.0 °F 32% 30.42 in 10.0 mi South 23.0 mph 32.2 mph N/A   Partly Cloudy
5:53 PM 69.1 °F - 35.1 °F 29% 29.92 in 10.0 mi South 18.4 mph 25.3 mph N/A   Mostly Cloudy
6:53 PM 64.0 °F - 36.0 °F 35% 29.94 in 10.0 mi South 13.8 mph - N/A   Mostly Cloudy
7:53 PM 64.0 °F - 36.0 °F 35% 29.88 in 10.0 mi South 13.8 mph - N/A   Overcast
8:53 PM 59.0 °F - 36.0 °F 42% 29.87 in 10.0 mi SE 6.9 mph - N/A   Clear
9:53 PM 55.9 °F - 36.0 °F 47% 29.86 in 10.0 mi NW 3.5 mph - N/A   Clear
10:53 PM 52.0 °F - 35.1 °F 53% 29.90 in 10.0 mi Calm Calm - N/A   Partly Cloudy
11:53 PM 53.1 °F - 36.0 °F 52% 29.89 in 10.0 mi SE 5.8 mph - N/A   Clear